Temperature
10 9 9 9 9 9 9 9 9 9 9 9 9 9 9 10 10 10 10 10 10 11 11 10 10 10 10 10 10 10 10 10 10 9 9 9 10 10 10 10 10 10 10
9 9 9 9 8 8 9 9 9 9 9 9 9 9 9 9 9 10 10 10 10 10 10 10 10 10 10 10 10 10 9 9 9 9 9 9 9 10 10 10 10 10 10
9 9 8 8 8 8 8 8 9 9 9 9 9 9 9 9 9 9 9 10 10 10 10 10 10 10 9 9 9 9 9 9 9 9 9 10 10 10 10 10 10 10 10
8 8 8 8 8 8 8 8 8 8 9 8 8 8 8 8 9 9 9 9 9 9 10 10 9 9 9 9 9 9 9 9 9 9 9 10 10 10 10 9 9 10 10
8 7 7 7 7 8 8 8 8 8 8 8 8 8 8 8 8 8 9 9 9 9 9 9 9 9 9 9 9 9 9 9 9 9 9 9 9 10 9 9 9 9 9
8 7 7 7 7 7 7 7 8 8 8 8 8 8 8 8 8 8 8 8 8 9 9 9 9 9 9 9 9 9 9 9 9 9 9 9 9 9 9 9 9 9 9
8 7 7 7 7 7 7 7 7 8 8 8 8 8 8 8 8 8 8 8 8 8 8 8 8 9 9 9 9 9 9 9 9 9 9 9 9 9 9 9 9 9 9
7 7 7 6 6 6 6 7 7 7 7 7 7 7 8 7 7 7 8 8 8 8 8 8 8 8 8 8 8 8 8 8 9 9 9 9 9 9 9 9 9 8 8
7 7 6 6 6 6 6 6 7 7 7 7 7 7 7 7 7 7 7 7 8 8 8 8 8 8 8 8 8 8 8 8 8 8 9 8 9 9 9 9 9 9 8
7 6 6 6 6 6 6 6 6 6 6 7 7 7 7 7 7 7 7 7 7 7 7 8 8 8 8 8 8 8 8 8 8 8 8 8 8 8 8 9 9 9 9
6 6 6 6 6 6 6 6 6 6 6 6 6 6 6 6 6 7 7 7 7 7 7 7 7 7 7 8 8 8 8 8 8 8 8 8 8 8 8 8 9 9 9
6 5 5 5 5 5 5 5 5 5 6 6 6 6 6 6 6 6 6 6 6 7 7 7 7 7 7 7 8 8 8 8 8 8 8 8 8 8 8 8 8 8 8
5 5 5 5 5 5 5 5 5 5 5 5 5 5 5 5 6 6 6 6 6 6 6 7 7 7 7 7 7 7 8 8 8 8 8 8 8 8 8 8 8 8 8
5 4 4 4 4 4 4 4 4 4 5 5 5 5 5 5 5 5 5 6 6 6 6 6 7 7 7 7 7 7 7 8 8 8 8 8 8 8 8 8 8 8 8
4 4 4 4 4 4 4 4 4 4 4 4 4 4 4 4 4 5 5 5 5 6 6 6 6 6 7 7 7 7 7 7 8 8 8 8 8 8 8 8 8 8 7
4 4 3 3 3 3 3 3 3 3 3 3 4 4 4 4 4 4 4 5 5 5 6 6 6 6 6 7 7 7 7 7 7 7 8 8 7 7 7 8 8 8 7
3 3 3 3 3 3 3 3 3 3 3 3 3 3 3 3 3 3 4 4 5 5 5 5 5 6 6 6 6 6 6 7 7 7 7 7 7 7 7 7 7 7 7
3 3 3 3 2 3 2 2 2 2 2 3 3 3 3 3 3 3 3 4 4 4 5 5 5 5 6 6 6 6 6 6 7 7 7 7 7 7 7 7 7 7 7
3 3 2 2 2 2 2 2 2 2 2 2 2 2 2 2 2 3 3 3 4 4 4 4 5 5 5 5 6 6 6 6 6 6 7 7 7 7 7 6 6 6 6
2 2 2 2 2 2 2 2 2 1 1 1 1 2 2 2 2 2 3 3 3 4 4 4 4 5 5 5 5 5 5 5 6 6 6 6 6 6 6 6 6 6 6
2 2 2 2 2 1 1 1 1 1 1 1 1 1 1 1 2 2 2 3 3 3 3 4 4 4 4 5 5 5 5 5 5 5 6 6 6 6 6 6 6 6 6
1 1 1 1 1 1 1 1 1 1 1 1 1 1 1 1 1 2 2 2 2 3 3 3 3 3 4 4 4 4 5 5 5 5 5 5 6 6 6 6 6 6 6
1 1 1 1 1 1 1 0 0 0 0 0 1 1 1 1 1 1 2 2 2 2 2 3 3 3 3 3 4 4 4 4 5 5 5 5 5 5 5 5 5 5 5
1 1 0 0 1 1 1 0 0 0 0 0 0 0 1 1 1 1 1 1 2 2 2 2 2 3 3 3 3 3 4 4 4 4 4 4 5 5 4 4 4 5 5
0 -0 -0 0 0 0 0 0 -0 0 0 0 0 0 0 1 1 1 1 1 1 1 1 2 2 2 2 3 3 3 3 3 3 3 3 3 4 4 4 4 4 4 4
-1 -1 -0 -0 -0 0 -0 -0 -0 -0 -0 -0 -0 0 0 0 1 1 1 1 1 1 2 2 2 2 2 2 3 3 3 3 3 3 3 3 3 3 3 3 3 3 3
Wind_Speed
10 9 9 8 8 9 9 9 9 8 6 5 5 5 7 7 6 7 10 10 10 11 10 8 9 10 10 11 12 10 11 9 8 6 6 6 8 9 9 9 9 10 11
10 10 9 9 8 9 9 8 9 8 8 6 5 6 7 6 6 7 9 10 10 11 10 11 10 10 10 11 12 11 9 8 8 7 5 5 6 8 10 10 10 10 9
10 10 9 9 9 9 9 8 8 8 8 7 5 6 5 5 6 7 8 9 10 11 11 12 11 11 11 11 13 13 12 10 10 9 7 5 6 5 7 10 9 10 9
9 9 9 9 9 9 8 8 8 8 8 7 7 8 7 8 9 8 8 9 10 11 12 12 12 12 12 13 13 13 11 12 11 10 9 7 4 4 4 7 9 10 10
8 9 9 9 9 9 8 8 8 8 8 7 7 8 8 9 7 8 9 9 10 11 12 12 12 12 12 13 14 13 13 12 12 10 9 8 6 7 5 6 7 8 9
8 8 8 8 9 9 8 8 8 8 8 8 8 9 9 9 9 9 9 8 8 9 12 12 12 12 12 13 14 14 15 14 14 12 11 9 7 7 7 7 8 8 7
8 9 9 9 9 9 8 8 8 8 8 8 8 10 10 10 11 10 10 9 9 9 12 12 12 12 13 13 14 14 14 15 15 15 12 12 11 9 7 6 6 7 6
8 9 10 10 9 9 9 9 8 8 8 8 8 9 9 9 9 10 9 9 9 10 12 12 12 13 13 13 13 12 14 14 15 16 15 12 11 10 8 7 6 6 6
9 9 10 10 9 9 9 9 8 9 8 8 8 9 9 9 10 10 9 8 9 9 11 12 12 12 13 14 13 12 14 14 15 15 15 13 10 9 9 8 8 7 7
10 10 9 9 9 9 9 8 8 8 8 8 8 8 9 9 9 9 9 10 10 10 11 11 12 12 13 14 14 13 14 15 14 12 14 13 10 9 8 8 8 8 7
11 10 9 10 10 9 8 8 7 7 7 7 8 9 8 8 9 8 8 9 9 10 11 12 12 12 13 13 14 14 15 16 15 14 14 14 12 10 9 8 8 8 7
10 10 10 10 9 8 8 8 7 7 7 7 7 7 7 7 7 8 8 8 9 10 11 11 12 12 12 13 14 14 14 15 15 14 14 14 11 12 10 9 9 8 8
10 10 10 9 9 8 8 7 7 7 7 7 7 6 6 6 7 7 8 8 8 9 10 11 11 11 11 12 12 13 13 14 13 13 14 13 13 12 10 10 9 7 7
10 10 10 9 8 8 7 7 7 6 6 6 7 6 7 6 7 7 7 7 8 8 9 10 10 10 10 11 11 11 11 12 11 11 12 12 13 13 12 10 10 8 7
11 10 9 8 8 8 7 7 7 6 6 6 6 6 6 6 6 6 6 7 7 7 8 8 9 9 9 9 10 9 10 11 11 11 11 11 11 11 10 8 9 9 7
11 10 9 9 9 9 7 7 7 6 6 7 6 7 6 6 6 6 6 6 6 6 6 7 7 8 7 8 9 9 7 9 10 10 10 10 10 10 11 10 11 10 10
11 10 9 9 9 8 6 6 6 6 7 6 7 6 6 6 6 6 6 6 6 4 5 5 6 6 6 7 8 8 7 8 9 9 9 8 8 10 9 9 8 9 9
10 9 9 9 8 7 6 6 5 6 6 6 6 6 6 6 6 6 6 6 5 3 4 4 4 5 5 5 6 6 7 7 8 8 9 8 8 9 9 8 7 7 6
9 9 8 8 8 7 6 5 6 5 5 5 6 6 5 6 6 6 7 6 4 3 3 3 3 4 4 5 5 5 6 5 6 7 8 8 8 9 9 8 7 6 4
8 8 8 8 8 7 6 5 6 6 6 6 6 6 5 6 6 7 7 5 3 3 2 2 2 2 2 3 3 4 4 4 4 4 6 8 8 9 9 8 8 7 5
8 8 7 7 7 7 5 5 6 7 7 6 6 6 5 6 6 6 6 4 3 2 2 2 2 1 1 2 3 3 3 4 4 4 4 5 7 8 8 7 6 7 6
9 8 7 7 7 6 5 6 7 7 6 6 6 6 6 5 5 5 4 3 2 2 1 0 1 1 0 1 2 2 1 2 4 3 3 4 7 7 6 5 6 8 6
10 9 8 8 8 6 5 6 7 6 5 5 6 6 6 5 4 4 4 3 2 1 1 0 0 1 0 1 3 2 1 1 2 2 3 4 6 6 4 6 7 6 5
9 9 8 8 8 7 6 7 6 5 5 5 6 5 5 5 4 3 3 2 1 1 1 1 1 1 1 1 1 1 2 2 2 2 4 5 5 4 4 5 4 3 4
9 8 8 8 9 8 7 6 5 5 5 5 5 5 4 4 4 3 3 2 2 2 2 2 2 2 2 2 1 1 1 1 2 2 2 3 3 3 2 2 2 3 3
9 8 8 8 8 7 7 6 5 5 4 5 5 4 4 3 2 2 2 2 2 3 3 3 3 2 2 2 2 2 2 2 3 3 3 2 3 3 3 3 2 2 3
Wind_Direction
279 280 278 277 278 277 268 257 254 258 253 247 238 246 243 236 232 237 233 228 225 217 217 214 211 209 213 214 211 211 211 212 207 210 220 231 228 225 221 220 222 223 222
288 285 284 282 275 274 272 268 258 257 251 249 243 240 240 238 235 242 236 229 227 220 217 214 212 212 214 216 214 211 211 211 203 205 207 221 225 225 221 219 220 224 221
295 292 288 285 281 274 269 266 263 262 255 249 245 242 240 238 241 241 238 231 228 226 221 220 216 214 215 217 215 210 211 209 208 210 208 211 221 210 206 214 215 217 217
299 296 292 287 282 278 272 268 263 262 259 250 243 239 239 240 244 243 239 232 231 228 222 222 221 218 217 218 218 215 213 210 210 211 223 234 232 217 204 207 212 216 219
303 301 295 288 282 280 278 272 267 265 259 250 246 242 243 244 244 243 241 233 231 228 225 222 222 220 220 220 218 216 214 212 214 213 212 223 226 230 228 220 213 219 222
305 303 302 292 287 287 283 276 270 270 264 251 247 244 246 246 246 243 240 235 232 227 226 222 223 222 221 220 218 216 216 215 216 216 215 214 213 212 221 225 216 222 225
304 307 307 299 294 291 286 280 276 271 269 259 252 248 246 244 241 244 239 238 235 230 225 223 224 224 222 221 218 218 219 218 217 217 218 220 222 220 222 222 222 226 230
300 303 303 299 295 294 288 282 277 272 267 262 260 258 251 249 242 244 242 241 240 235 229 224 225 227 225 222 220 220 221 220 220 219 219 222 223 219 218 217 217 223 231
303 304 306 304 299 293 289 282 277 272 268 264 263 260 255 254 250 250 246 245 244 240 232 227 227 227 226 222 221 221 220 220 220 220 219 220 222 218 218 214 210 216 229
312 309 309 305 303 299 293 289 281 275 272 270 267 263 258 260 259 256 252 247 244 241 236 233 231 229 228 222 221 224 222 220 220 218 218 218 219 215 216 213 211 217 226
317 316 309 306 304 305 308 307 297 284 280 272 271 268 261 261 260 256 255 250 245 240 237 235 232 230 228 222 220 222 219 220 218 214 216 217 214 211 211 208 208 212 215
316 315 316 314 311 310 308 308 305 298 293 287 281 277 273 267 264 260 260 255 247 243 239 235 232 228 227 222 221 221 218 217 214 211 213 213 208 211 211 207 209 211 211
318 317 317 315 313 313 310 307 306 301 301 299 290 286 284 279 274 272 267 261 253 249 244 234 229 227 226 224 223 219 219 216 213 211 210 208 205 211 208 205 207 208 208
316 317 316 314 316 316 314 311 309 306 307 306 298 290 287 290 288 287 280 269 260 252 248 237 229 225 223 224 222 218 217 213 209 207 207 207 208 209 204 202 203 201 200
316 317 315 315 317 318 314 315 313 312 309 305 303 298 291 294 297 297 292 285 272 261 249 239 230 223 221 220 217 217 217 210 205 205 208 208 202 204 203 198 197 197 199
315 316 315 315 315 314 311 313 310 311 310 302 303 305 298 299 302 301 299 296 288 267 247 238 230 226 223 215 214 216 215 209 205 206 204 200 198 201 200 200 199 199 199
313 311 310 312 311 308 304 305 304 307 307 307 306 307 310 307 305 306 306 307 297 280 262 245 234 226 222 207 207 212 215 213 208 202 198 198 198 196 199 196 195 204 202
307 306 309 311 312 308 302 301 299 297 301 303 304 309 312 310 309 308 307 307 298 278 269 256 245 235 226 209 204 204 210 212 206 201 199 195 197 195 191 194 197 204 205
303 302 304 307 311 309 302 300 295 297 301 303 303 304 306 308 311 308 306 307 295 281 276 257 248 238 221 188 192 197 198 196 203 201 197 193 196 186 181 186 188 192 191
305 305 307 306 305 305 301 297 301 303 299 297 298 301 303 303 303 307 310 307 288 283 286 277 259 231 207 174 180 186 184 191 198 194 192 190 189 182 179 188 187 191 185
306 304 301 298 299 302 298 296 299 296 296 298 300 304 306 301 299 306 309 304 298 289 283 290 285 240 185 151 148 172 180 183 188 193 191 187 169 175 182 193 195 186 173
303 300 297 298 301 299 291 289 290 293 297 298 299 303 308 309 309 308 308 304 299 277 284 345 351 309 178 147 129 111 176 181 184 194 191 183 166 168 174 181 169 159 157
299 299 295 295 298 295 287 285 289 293 295 297 299 303 309 310 307 306 309 309 307 301 296 336 317 289 244 133 117 120 114 144 177 170 169 168 160 155 160 155 157 160 160
295 295 292 290 295 297 290 284 288 289 288 292 297 301 302 306 310 311 304 297 297 314 325 305 290 279 213 168 129 114 108 100 104 122 136 139 136 137 144 151 151 158 162
292 290 287 287 290 295 292 289 286 285 288 291 295 298 297 300 311 311 302 285 273 275 269 270 266 238 220 208 199 183 178 154 141 126 130 133 129 129 130 129 133 139 144
289 289 287 286 288 291 291 292 288 281 283 289 292 293 292 295 304 308 324 345 313 320 310 311 305 277 240 205 178 150 132 139 151 140 142 147 147 152 151 146 136 145 151
Height
1437 1436 1434 1433 1431 1431 1430 1430 1430 1430 1430 1431 1431 1432 1433 1434 1436 1437 1439 1440 1442 1444 1446 1447 1450 1452 1454 1456 1459 1461 1464 1466 1468 1471 1472 1473 1474 1475 1476 1478 1480 1481 1482
1432 1430 1429 1428 1427 1426 1425 1424 1425 1426 1426 1426 1427 1428 1428 1429 1430 1431 1433 1435 1436 1438 1440 1441 1444 1447 1449 1451 1454 1456 1458 1460 1462 1465 1467 1469 1471 1469 1470 1472 1474 1476 1477
1427 1426 1424 1423 1423 1422 1421 1420 1421 1421 1421 1422 1422 1423 1423 1423 1425 1425 1427 1429 1431 1433 1434 1436 1438 1440 1443 1445 1448 1450 1452 1454 1457 1459 1462 1463 1464 1465 1466 1466 1468 1471 1472
1424 1423 1421 1419 1418 1417 1416 1416 1416 1416 1416 1417 1417 1418 1416 1417 1418 1420 1421 1423 1425 1427 1428 1430 1432 1434 1437 1439 1442 1444 1446 1448 1450 1453 1455 1457 1458 1460 1461 1462 1463 1465 1467
1421 1420 1418 1416 1415 1413 1412 1411 1411 1411 1411 1411 1412 1412 1412 1413 1414 1415 1415 1417 1419 1420 1422 1424 1426 1428 1430 1432 1435 1438 1440 1442 1444 1446 1449 1451 1452 1454 1455 1456 1458 1460 1462
1419 1417 1415 1413 1411 1409 1408 1407 1406 1406 1406 1406 1407 1407 1407 1407 1407 1408 1409 1410 1412 1413 1415 1417 1419 1421 1423 1426 1428 1431 1433 1435 1438 1440 1443 1445 1446 1447 1449 1451 1452 1454 1456
1416 1414 1412 1409 1407 1405 1403 1403 1402 1401 1401 1401 1402 1402 1402 1402 1402 1402 1403 1404 1405 1406 1408 1410 1412 1414 1416 1419 1421 1424 1426 1428 1431 1433 1436 1439 1441 1443 1445 1446 1447 1449 1451
1413 1411 1409 1406 1404 1401 1400 1398 1397 1397 1397 1397 1397 1397 1397 1397 1397 1397 1397 1398 1399 1400 1402 1403 1405 1407 1409 1412 1414 1416 1419 1421 1424 1426 1429 1432 1434 1437 1438 1440 1442 1444 1446
1410 1408 1406 1403 1401 1398 1396 1394 1393 1393 1393 1392 1392 1392 1392 1392 1391 1391 1392 1392 1393 1394 1395 1397 1398 1400 1402 1404 1407 1409 1411 1414 1416 1419 1422 1425 1428 1430 1432 1434 1436 1439 1439
1406 1405 1403 1400 1398 1395 1393 1391 1389 1389 1388 1387 1387 1386 1386 1386 1386 1385 1386 1386 1387 1387 1388 1390 1392 1393 1395 1397 1400 1402 1404 1406 1409 1412 1415 1418 1421 1423 1426 1428 1430 1433 1434
1404 1401 1399 1397 1394 1392 1389 1387 1386 1385 1384 1383 1382 1382 1382 1381 1381 1380 1380 1380 1381 1381 1382 1384 1385 1387 1388 1390 1392 1395 1397 1399 1401 1404 1407 1410 1414 1417 1419 1421 1424 1426 1428
1401 1398 1396 1393 1391 1388 1386 1384 1383 1381 1380 1379 1378 1378 1377 1376 1376 1375 1375 1375 1375 1375 1376 1377 1379 1380 1382 1383 1386 1387 1389 1391 1394 1397 1400 1404 1407 1410 1413 1415 1418 1420 1422
1397 1394 1392 1390 1387 1385 1383 1382 1380 1378 1377 1375 1374 1373 1373 1372 1371 1370 1370 1369 1369 1369 1370 1371 1372 1373 1375 1377 1379 1381 1383 1385 1387 1390 1393 1397 1401 1403 1406 1409 1412 1414 1417
1395 1391 1389 1386 1384 1382 1380 1379 1378 1376 1374 1372 1371 1369 1369 1367 1366 1365 1364 1364 1363 1363 1363 1364 1365 1367 1369 1371 1373 1374 1376 1379 1381 1384 1387 1391 1394 1397 1400 1403 1406 1408 1411
1392 1389 1386 1384 1382 1380 1378 1376 1375 1373 1372 1370 1368 1366 1365 1364 1362 1360 1359 1358 1357 1357 1357 1358 1360 1362 1364 1365 1366 1369 1371 1373 1376 1379 1382 1385 1388 1391 1395 1397 1400 1403 1405
1390 1387 1384 1382 1379 1377 1376 1374 1372 1371 1369 1367 1364 1363 1362 1359 1357 1355 1354 1352 1352 1351 1352 1353 1354 1356 1358 1359 1362 1364 1365 1368 1371 1374 1377 1380 1383 1386 1390 1393 1395 1398 1400
1388 1385 1382 1380 1378 1376 1374 1371 1370 1368 1366 1363 1362 1360 1358 1355 1353 1351 1349 1347 1346 1347 1347 1349 1350 1351 1352 1354 1356 1359 1361 1363 1366 1369 1372 1375 1378 1382 1385 1388 1390 1393 1395
1385 1383 1380 1378 1375 1373 1371 1369 1368 1366 1363 1361 1359 1357 1354 1352 1350 1348 1345 1344 1343 1343 1343 1344 1345 1346 1348 1349 1351 1354 1356 1359 1362 1365 1368 1371 1374 1377 1380 1383 1385 1388 1390
1383 1381 1378 1375 1372 1370 1369 1367 1365 1363 1360 1358 1356 1354 1351 1349 1346 1344 1342 1340 1340 1339 1340 1340 1341 1342 1343 1345 1347 1350 1352 1354 1357 1360 1363 1367 1369 1372 1375 1378 1380 1383 1385
1381 1378 1375 1372 1370 1368 1366 1364 1361 1359 1358 1356 1353 1351 1349 1346 1343 1341 1339 1338 1337 1337 1337 1337 1337 1338 1340 1341 1343 1346 1348 1350 1353 1356 1359 1363 1365 1368 1371 1374 1376 1378 1380
1378 1375 1373 1370 1368 1366 1363 1361 1359 1357 1355 1353 1350 1348 1346 1344 1341 1339 1338 1337 1336 1335 1335 1335 1335 1336 1337 1339 1340 1343 1345 1347 1350 1352 1355 1358 1361 1364 1367 1370 1372 1374 1377
1375 1373 1370 1367 1365 1363 1361 1358 1356 1354 1352 1350 1347 1345 1343 1341 1339 1337 1336 1335 1334 1334 1333 1333 1333 1334 1335 1337 1338 1340 1343 1345 1347 1349 1352 1354 1358 1361 1364 1366 1368 1371 1373
1371 1369 1366 1363 1361 1360 1358 1355 1354 1351 1349 1346 1344 1342 1340 1339 1337 1335 1334 1333 1333 1332 1332 1332 1332 1333 1334 1335 1337 1338 1341 1343 1345 1347 1349 1352 1355 1358 1360 1363 1365 1367 1369
1367 1365 1363 1360 1358 1356 1354 1352 1351 1349 1346 1343 1341 1340 1338 1336 1335 1333 1333 1332 1332 1331 1331 1331 1331 1332 1333 1334 1335 1337 1339 1341 1343 1345 1348 1350 1352 1355 1357 1359 1362 1364 1366
1363 1361 1359 1356 1354 1353 1351 1349 1348 1345 1343 1341 1339 1337 1336 1334 1333 1332 1332 1332 1332 1332 1331 1331 1331 1331 1331 1333 1334 1335 1337 1339 1341 1343 1346 1348 1350 1352 1354 1356 1358 1360 1363
1359 1356 1354 1353 1351 1349 1347 1346 1344 1343 1340 1338 1337 1335 1333 1332 1331 1330 1330 1330 1330 1330 1330 1329 1329 1330 1331 1332 1333 1335 1336 1338 1340 1342 1344 1346 1348 1350 1351 1353 1355 1357 1360